This demonstration page uses our WeatherBlox Daily Observations layout. Learn more.

Left ArrowRight Arrow

36.17497, -115.13722

Hourly Observations for February 20, 2020

Temp ( °F °C ) Dew Point ( °F °C ) Humidity (%) Winds ( mph kmh ) Pressure ( in mb ) Visibility ( mi km ) Precip ( " mm )
12:53 am 00:53 Clear 47 8.3 15 -9.4 28 28 NW 6 9 30.27 1025 10 16.0934 0 0
1:53 am 01:53 Clear 48 8.9 17 -8.3 29 29 NW 5 7 30.27 1025 10 16.0934 0 0
2:53 am 02:53 Clear 46 7.8 17 -8.3 31 31 N 3 6 30.28 1025 10 16.0934 0 0
3:53 am 03:53 Clear 46 7.8 13 -10.6 26 26 NNW 6 9 30.29 1026 10 16.0934 0 0
4:53 am 04:53 Clear 42 5.6 15 -9.4 33 33 WNW 6 9 30.3 1026 10 16.0934 0 0
5:53 am 05:53 Clear 42 5.6 16 -8.9 35 35 WNW 5 7 30.32 1027 10 16.0934 0 0
6:53 am 06:53 Sunny 45 7.2 10 -12.2 24 24 NW 7 11 30.35 1028 10 16.0934 0 0
7:53 am 07:53 Sunny 47 8.3 13 -10.6 25 25 NW 3 6 30.37 1029 10 16.0934 0 0
8:53 am 08:53 Sunny 51 10.6 15 -9.4 24 24 Calm 30.39 1029 10 16.0934 0 0
9:53 am 09:53 Sunny 53 11.7 13 -10.6 20 20 SE 3 6 30.39 1029 10 16.0934 0 0
10:53 am 10:53 Sunny 57 13.9 9 -12.8 15 15 Calm 30.37 1029 10 16.0934 0 0
11:53 am 11:53 Sunny 59 15 9 -12.8 13 13 Calm 30.34 1027 10 16.0934 0 0
12:53 pm 12:53 Sunny 62 16.7 9 -12.8 12 12 SE 9 15 30.29 1026 10 16.0934 0 0
1:53 pm 13:53 Sunny 64 17.8 9 -12.8 11 11 E 7 11 30.26 1025 10 16.0934 0 0
2:53 pm 14:53 Sunny 64 17.8 10 -12.2 12 12 ESE 9 15 30.24 1024 10 16.0934 0 0
3:53 pm 15:53 Sunny 65 18.3 11 -11.7 12 12 ENE 9 15 30.23 1024 10 16.0934 0 0
4:53 pm 16:53 Sunny 64 17.8 11 -11.7 12 12 E 7 11 30.23 1024 10 16.0934 0 0
5:53 pm 17:53 Clear 60 15.6 11 -11.7 14 14 SSE 5 7 30.24 1024 10 16.0934 0 0
6:53 pm 18:53 Clear 59 15 13 -10.6 16 16 SW 5 7 30.25 1024 10 16.0934 0 0
7:53 pm 19:53 Clear 55 12.8 15 -9.4 20 20 W 5 7 30.25 1024 10 16.0934 0 0
8:53 pm 20:53 Clear 53 11.7 15 -9.4 22 22 NNW 6 9 30.24 1024 10 16.0934 0 0
9:53 pm 21:53 Clear 50 10 15 -9.4 25 25 NW 5 7 30.24 1024 10 16.0934 0 0
10:53 pm 22:53 Clear 49 9.4 16 -8.9 27 27 NNW 8 13 30.25 1024 10 16.0934 0 0
11:53 pm 23:53 Clear 47 8.3 16 -8.9 29 29 WNW 5 7 30.25 1024 10 16.0934 0 0

Powered by AerisWeather